CZ-4B R/B (25732 NORAD) Tracking and Keplerian Element Data

This shows tracking and keplerian element data for the satellite.

Feedback or suggestion? Click here.




ElementValue
Catalog25732
NameCZ-4B R/B
Epoch Orbit99260
Epoch Day198.91663753
Epoch Year2018
RAAN210.5614
Inclination98.9924
Eccentricity0.0038177
Argument of Perigee46.5016
Mean Anonmoly15.2443
Mean Motion14.17651656
Decay Rate-4.4E-07
L11 25732U 99025C 18198.91663753 -.00000044 00000-0 75533-6 0 9999
L22 25732 98.9924 210.5614 0038177 46.5016 15.2443 14.17651656992606

Live tracking and technical data element details for CZ-4B R/B (NORAD 25732). CZ-4B R/B can be tracked NOW for your location showing map with azimuth and elevation plus other details from your city location.

Track the satellite on the map from your city or location and see movement details for azimuth, elevation, latitude, longitude, range, height, and movement on the map or in text.







IsCatalogInMostPopularTable: catalog: 25732, numindb: 20
Update: records affected: 1



GetName: 25732 CZ-4B R/B

Hit Count: updated at: Fri, 20 Jul 2018 02:44:07 GMT